Weather History for Buffalo, SD

Change the Weather History Date:

Sunday, July 28, 2013

  Actual Average Record
Temperature  
Mean Temperature 69 °F 72 °F  
Max Temperature 84 °F 86 °F 109 °F (2006)
Min Temperature 53 °F 59 °F 51 °F (2004)
Degree Days  
Heating Degree Days 0 0  
Month to date heating degree days 10 21  
Since 1 June heating degree days 99 135  
Since 1 July heating degree days 10 21  
Cooling Degree Days 4 8  
Month to date cooling degree days 214 185  
Year to date cooling degree days 270 253  
Since 1 June cooling degree days 260 247  
Growing Degree Days 18 (Base 50)    
Moisture  
Dew Point 49 °F    
Average Humidity 51    
Maximum Humidity 67    
Minimum Humidity 34    
Precipitation  
Precipitation 0.00 in 0.06 in 0.20 in (2005)
Month to date precipitation 0.98 1.88  
Year to date precipitation 6.84 10.55  
Sea Level Pressure  
Sea Level Pressure 29.84 in    
Wind  
Wind Speed 15 mph (SE)    
Max Wind Speed 26 mph    
Max Gust Speed 35 mph    
T = Trace of Precipitation, MM = Missing Value Source: NWS Daily Summary

Daily Weather History Graph

Daily Weather History Graph

Search for Another Location

Airport:

Trip Planner

Search our weather history database for the weather conditions in past years. The results will help you decide how hot, cold, wet, or windy it might be!

Date:

Astronomy

Jul. 28, 2013 Rise Set
Actual Time 5:33 AM MDT 8:27 PM MDT
Civil Twilight 4:58 AM MDT 9:01 PM MDT
Nautical Twilight 4:14 AM MDT 9:45 PM MDT
Astronomical Twilight 3:21 AM MDT 10:37 PM MDT
Moon 11:25 PM MDT (7/28) 12:42 PM MDT (7/28)
Length of Visible Light 16h 02m
Length of Day
14h 53m
Waning Gibbous, 60% of the Moon is Illuminated
Jul 28
Waning Gibbous
Jul 29
Last Quarter
Aug 6
New
Aug 14
First Quarter
Aug 20
Full

Hourly Weather History & Observations

Time (MDT) Temp. Dew Point Humidity Pressure Visibility Wind Dir Wind Speed Gust Speed Precip Events Conditions
12:56 AM 57.9 °F 39.0 °F 49% 29.92 in - ESE 9.2 mph - N/A   Unknown
1:56 AM 57.9 °F 39.9 °F 51% 29.89 in - SE 15.0 mph - N/A   Unknown
2:56 AM 55.9 °F 41.0 °F 57% 29.87 in - ESE 9.2 mph - N/A   Unknown
3:56 AM 55.0 °F 41.0 °F 59% 29.87 in - ESE 10.4 mph 17.3 mph N/A   Unknown
4:56 AM 53.1 °F 42.1 °F 66% 29.86 in - East 9.2 mph - N/A   Unknown
5:56 AM 53.1 °F 43.0 °F 69% 29.87 in - East 9.2 mph - N/A   Unknown
6:56 AM 55.9 °F 44.1 °F 64% 29.86 in - ESE 9.2 mph - N/A   Unknown
7:56 AM 59.0 °F 46.0 °F 62% 29.87 in - SE 18.4 mph 23.0 mph N/A   Unknown
8:56 AM 66.9 °F 48.9 °F 52% 29.86 in - SE 17.3 mph 23.0 mph N/A   Unknown
9:56 AM 69.1 °F 51.1 °F 53% 29.86 in - SE 18.4 mph 24.2 mph N/A   Unknown
10:56 AM 73.0 °F 52.0 °F 48% 29.85 in - SE 17.3 mph 25.3 mph N/A   Unknown
11:56 AM 73.9 °F 52.0 °F 46% 29.84 in - SE 21.9 mph 26.5 mph N/A   Unknown
12:56 PM 78.1 °F 52.0 °F 40% 29.83 in - SE 19.6 mph 26.5 mph N/A   Unknown
1:56 PM 81.0 °F 52.0 °F 36% 29.81 in - SE 19.6 mph 34.5 mph N/A   Unknown
2:56 PM 82.9 °F 52.0 °F 34% 29.79 in - SE 17.3 mph 31.1 mph N/A   Unknown
3:56 PM 82.0 °F 51.1 °F 34% 29.77 in - SE 19.6 mph 27.6 mph N/A   Unknown
4:56 PM 81.0 °F 51.1 °F 35% 29.76 in - ESE 19.6 mph 29.9 mph N/A   Unknown
5:56 PM 79.0 °F 52.0 °F 39% 29.77 in - SE 19.6 mph - N/A   Unknown
6:56 PM 78.1 °F 53.1 °F 42% 29.79 in - SE 19.6 mph 25.3 mph N/A   Unknown
7:56 PM 75.0 °F 55.0 °F 50% 29.81 in - SSE 17.3 mph - N/A   Unknown
8:56 PM 73.0 °F 54.0 °F 51% 29.81 in - SE 16.1 mph - N/A   Unknown
9:56 PM 71.1 °F 54.0 °F 55% 29.83 in - SE 10.4 mph - N/A   Unknown
10:43 PM 64.9 °F 53.1 °F 65% 29.92 in - NW 12.7 mph - N/A   Unknown
10:56 PM 64.9 °F 54.0 °F 68% 29.86 in - North 4.6 mph - N/A   Unknown
11:56 PM 66.0 °F 53.1 °F 63% 29.82 in - SSE 10.4 mph - N/A   Unknown